owner,sensor,date,latitude,longitude,vertical_datum,sea_water_practical_salinity,qcFlag 
SCCF RECON,ioos:station:SCCF:16:1,2010-10-01T00:00:00Z,26.4345,-81.9647,2.634,33.93,1111122 
SCCF RECON,ioos:station:SCCF:16:1,2010-10-01T01:00:00Z,26.4345,-81.9647,2.634,33.69,1111122 
SCCF RECON,ioos:station:SCCF:16:1,2010-10-01T02:00:00Z,26.4345,-81.9647,2.615,33.32,1111122 
SCCF RECON,ioos:station:SCCF:16:1,2010-10-01T03:00:00Z,26.4345,-81.9647,2.562,32.83,1111122 
SCCF RECON,ioos:station:SCCF:16:1,2010-10-01T04:00:00Z,26.4345,-81.9647,2.578,32.42,1111122 
SCCF RECON,ioos:station:SCCF:16:1,2010-10-01T05:00:00Z,26.4345,-81.9647,2.583,32.3,1111122 
SCCF RECON,ioos:station:SCCF:16:1,2010-10-01T06:00:00Z,26.4345,-81.9647,2.598,32.61,1111122 
SCCF RECON,ioos:station:SCCF:16:1,2010-10-01T07:00:00Z,26.4345,-81.9647,2.674,32.0,1111122 
SCCF RECON,ioos:station:SCCF:16:1,2010-10-01T08:00:00Z,26.4345,-81.9647,2.739,32.05,1111122 
SCCF RECON,ioos:station:SCCF:16:1,2010-10-01T09:00:00Z,26.4345,-81.9647,2.769,33.48,1111122 
SCCF RECON,ioos:station:SCCF:16:1,2010-10-01T10:00:00Z,26.4345,-81.9647,2.797,34.59,1111122 
SCCF RECON,ioos:station:SCCF:16:1,2010-10-01T11:00:00Z,26.4345,-81.9647,2.785,34.66,1111122 
SCCF RECON,ioos:station:SCCF:16:1,2010-10-01T12:00:00Z,26.4345,-81.9647,2.7,34.76,1111122 
SCCF RECON,ioos:station:SCCF:16:1,2010-10-01T13:00:00Z,26.4345,-81.9647,2.58,34.41,1111122 
SCCF RECON,ioos:station:SCCF:16:1,2010-10-01T14:00:00Z,26.4345,-81.9647,2.457,34.29,1111122 
SCCF RECON,ioos:station:SCCF:16:1,2010-10-01T15:00:00Z,26.4345,-81.9647,2.329,32.58,1111122 
SCCF RECON,ioos:station:SCCF:16:1,2010-10-01T16:00:00Z,26.4345,-81.9647,2.195,31.97,1111122 
SCCF RECON,ioos:station:SCCF:16:1,2010-10-01T17:00:00Z,26.4345,-81.9647,2.118,31.75,1111122 
SCCF RECON,ioos:station:SCCF:16:1,2010-10-01T18:00:00Z,26.4345,-81.9647,2.096,30.4,1111122 
SCCF RECON,ioos:station:SCCF:16:1,2010-10-01T19:00:00Z,26.4345,-81.9647,2.174,29.68,1111122 
SCCF RECON,ioos:station:SCCF:16:1,2010-10-01T20:00:00Z,26.4345,-81.9647,2.285,30.61,1111122 
SCCF RECON,ioos:station:SCCF:16:1,2010-10-01T21:00:00Z,26.4345,-81.9647,2.398,31.15,1111122 
SCCF RECON,ioos:station:SCCF:16:1,2010-10-01T22:00:00Z,26.4345,-81.9647,2.498,33.81,1111122 
SCCF RECON,ioos:station:SCCF:16:1,2010-10-01T23:00:00Z,26.4345,-81.9647,2.583,33.67,1111122 
SCCF RECON,ioos:station:SCCF:16:1,2010-10-02T00:00:00Z,26.4345,-81.9647,2.623,33.83,1111122 
SCCF RECON,ioos:station:SCCF:16:1,2010-10-02T01:00:00Z,26.4345,-81.9647,2.651,33.9,1111122 
SCCF RECON,ioos:station:SCCF:16:1,2010-10-02T02:00:00Z,26.4345,-81.9647,2.664,34.05,1111122 
SCCF RECON,ioos:station:SCCF:16:1,2010-10-02T03:00:00Z,26.4345,-81.9647,2.627,34.09,1111122 
SCCF RECON,ioos:station:SCCF:16:1,2010-10-02T04:00:00Z,26.4345,-81.9647,2.576,34.28,1111122 
SCCF RECON,ioos:station:SCCF:16:1,2010-10-02T05:00:00Z,26.4345,-81.9647,2.541,33.61,1111122 
SCCF RECON,ioos:station:SCCF:16:1,2010-10-02T06:00:00Z,26.4345,-81.9647,2.53,33.37,1111122 
SCCF RECON,ioos:station:SCCF:16:1,2010-10-02T07:00:00Z,26.4345,-81.9647,2.555,33.15,1111122 
SCCF RECON,ioos:station:SCCF:16:1,2010-10-02T08:00:00Z,26.4345,-81.9647,2.618,32.98,1111122 
SCCF RECON,ioos:station:SCCF:16:1,2010-10-02T09:00:00Z,26.4345,-81.9647,2.709,32.84,1111122 
SCCF RECON,ioos:station:SCCF:16:1,2010-10-02T10:00:00Z,26.4345,-81.9647,2.773,33.09,1111122 
SCCF RECON,ioos:station:SCCF:16:1,2010-10-02T11:00:00Z,26.4345,-81.9647,2.818,33.21,1111122 
SCCF RECON,ioos:station:SCCF:16:1,2010-10-02T12:00:00Z,26.4345,-81.9647,2.837,34.2,1111122 
SCCF RECON,ioos:station:SCCF:16:1,2010-10-02T13:00:00Z,26.4345,-81.9647,2.822,34.61,1111122 
SCCF RECON,ioos:station:SCCF:16:1,2010-10-02T14:00:00Z,26.4345,-81.9647,2.711,34.66,1111122 
SCCF RECON,ioos:station:SCCF:16:1,2010-10-02T15:00:00Z,26.4345,-81.9647,2.567,34.21,1111122 
SCCF RECON,ioos:station:SCCF:16:1,2010-10-02T16:00:00Z,26.4345,-81.9647,2.405,33.81,1111122 
SCCF RECON,ioos:station:SCCF:16:1,2010-10-02T17:00:00Z,26.4345,-81.9647,2.252,33.51,1111122 
SCCF RECON,ioos:station:SCCF:16:1,2010-10-02T18:00:00Z,26.4345,-81.9647,2.145,32.27,1111122 
SCCF RECON,ioos:station:SCCF:16:1,2010-10-02T19:00:00Z,26.4345,-81.9647,2.123,31.04,1111122 
SCCF RECON,ioos:station:SCCF:16:1,2010-10-02T20:00:00Z,26.4345,-81.9647,2.217,30.61,1111122 
SCCF RECON,ioos:station:SCCF:16:1,2010-10-02T21:00:00Z,26.4345,-81.9647,2.339,30.89,1111122 
SCCF RECON,ioos:station:SCCF:16:1,2010-10-02T22:00:00Z,26.4345,-81.9647,2.468,31.41,1111122 
SCCF RECON,ioos:station:SCCF:16:1,2010-10-02T23:00:00Z,26.4345,-81.9647,2.542,33.82,1111122 
SCCF RECON,ioos:station:SCCF:16:1,2010-10-03T00:00:00Z,26.4345,-81.9647,2.614,33.68,1111122 
SCCF RECON,ioos:station:SCCF:16:1,2010-10-03T01:00:00Z,26.4345,-81.9647,2.696,33.62,1111122 
SCCF RECON,ioos:station:SCCF:16:1,2010-10-03T02:00:00Z,26.4345,-81.9647,2.73,33.61,1111122 
SCCF RECON,ioos:station:SCCF:16:1,2010-10-03T03:00:00Z,26.4345,-81.9647,2.704,33.8,1111122 
SCCF RECON,ioos:station:SCCF:16:1,2010-10-03T04:00:00Z,26.4345,-81.9647,2.635,33.87,1111122 
SCCF RECON,ioos:station:SCCF:16:1,2010-10-03T05:00:00Z,26.4345,-81.9647,2.543,33.88,1111122 
SCCF RECON,ioos:station:SCCF:16:1,2010-10-03T06:00:00Z,26.4345,-81.9647,2.451,33.45,1111122 
SCCF RECON,ioos:station:SCCF:16:1,2010-10-03T07:00:00Z,26.4345,-81.9647,2.415,32.41,1111122 
SCCF RECON,ioos:station:SCCF:16:1,2010-10-03T08:00:00Z,26.4345,-81.9647,2.462,32.76,1111122 
SCCF RECON,ioos:station:SCCF:16:1,2010-10-03T09:00:00Z,26.4345,-81.9647,2.541,32.99,1111122 
SCCF RECON,ioos:station:SCCF:16:1,2010-10-03T10:00:00Z,26.4345,-81.9647,2.66,32.16,1111122 
SCCF RECON,ioos:station:SCCF:16:1,2010-10-03T11:00:00Z,26.4345,-81.9647,2.747,32.75,1111122 
SCCF RECON,ioos:station:SCCF:16:1,2010-10-03T12:00:00Z,26.4345,-81.9647,2.819,33.31,1111122 
SCCF RECON,ioos:station:SCCF:16:1,2010-10-03T13:00:00Z,26.4345,-81.9647,2.865,33.57,1111122 
SCCF RECON,ioos:station:SCCF:16:1,2010-10-03T14:00:00Z,26.4345,-81.9647,2.864,33.66,1111122 
SCCF RECON,ioos:station:SCCF:16:1,2010-10-03T15:00:00Z,26.4345,-81.9647,2.769,33.89,1111122 
SCCF RECON,ioos:station:SCCF:16:1,2010-10-03T16:00:00Z,26.4345,-81.9647,2.607,33.74,1111122 
SCCF RECON,ioos:station:SCCF:16:1,2010-10-03T17:00:00Z,26.4345,-81.9647,2.417,34.16,1111122 
SCCF RECON,ioos:station:SCCF:16:1,2010-10-03T18:00:00Z,26.4345,-81.9647,2.252,32.88,1111122 
SCCF RECON,ioos:station:SCCF:16:1,2010-10-03T19:00:00Z,26.4345,-81.9647,2.122,32.43,1111122 
SCCF RECON,ioos:station:SCCF:16:1,2010-10-03T20:00:00Z,26.4345,-81.9647,2.078,31.27,1111122 
SCCF RECON,ioos:station:SCCF:16:1,2010-10-03T21:00:00Z,26.4345,-81.9647,2.153,30.09,1111122 
SCCF RECON,ioos:station:SCCF:16:1,2010-10-03T22:00:00Z,26.4345,-81.9647,2.308,29.76,1111122 
SCCF RECON,ioos:station:SCCF:16:1,2010-10-03T23:00:00Z,26.4345,-81.9647,2.462,30.63,1111122 
SCCF RECON,ioos:station:SCCF:16:1,2010-10-04T00:00:00Z,26.4345,-81.9647,2.569,32.06,1111122 
SCCF RECON,ioos:station:SCCF:16:1,2010-10-04T01:00:00Z,26.4345,-81.9647,2.666,33.55,1111122 
SCCF RECON,ioos:station:SCCF:16:1,2010-10-04T02:00:00Z,26.4345,-81.9647,2.757,33.88,1111122 
SCCF RECON,ioos:station:SCCF:16:1,2010-10-04T03:00:00Z,26.4345,-81.9647,2.764,34.08,1111122 
SCCF RECON,ioos:station:SCCF:16:1,2010-10-04T04:00:00Z,26.4345,-81.9647,2.708,33.99,1111122 
SCCF RECON,ioos:station:SCCF:16:1,2010-10-04T05:00:00Z,26.4345,-81.9647,2.551,33.31,1111122 
SCCF RECON,ioos:station:SCCF:16:1,2010-10-04T06:00:00Z,26.4345,-81.9647,2.411,33.66,1111122 
SCCF RECON,ioos:station:SCCF:16:1,2010-10-04T07:00:00Z,26.4345,-81.9647,2.308,33.15,1111122 
SCCF RECON,ioos:station:SCCF:16:1,2010-10-04T08:00:00Z,26.4345,-81.9647,2.237,31.55,1111122 
SCCF RECON,ioos:station:SCCF:16:1,2010-10-04T09:00:00Z,26.4345,-81.9647,2.252,30.99,1111122 
SCCF RECON,ioos:station:SCCF:16:1,2010-10-04T10:00:00Z,26.4345,-81.9647,2.412,31.0,1111122 
SCCF RECON,ioos:station:SCCF:16:1,2010-10-04T11:00:00Z,26.4345,-81.9647,2.579,31.48,1111122 
SCCF RECON,ioos:station:SCCF:16:1,2010-10-04T12:00:00Z,26.4345,-81.9647,2.7,32.59,1111122 
SCCF RECON,ioos:station:SCCF:16:1,2010-10-04T13:00:00Z,26.4345,-81.9647,2.8,33.17,1111122 
SCCF RECON,ioos:station:SCCF:16:1,2010-10-04T14:00:00Z,26.4345,-81.9647,2.861,33.51,1111122 
SCCF RECON,ioos:station:SCCF:16:1,2010-10-04T15:00:00Z,26.4345,-81.9647,2.887,33.79,1111122 
SCCF RECON,ioos:station:SCCF:16:1,2010-10-04T16:00:00Z,26.4345,-81.9647,2.793,33.88,1111122 
SCCF RECON,ioos:station:SCCF:16:1,2010-10-04T17:00:00Z,26.4345,-81.9647,2.602,33.4,1111122 
SCCF RECON,ioos:station:SCCF:16:1,2010-10-04T18:00:00Z,26.4345,-81.9647,2.393,33.35,1111122 
SCCF RECON,ioos:station:SCCF:16:1,2010-10-04T19:00:00Z,26.4345,-81.9647,2.204,32.28,1111122 
SCCF RECON,ioos:station:SCCF:16:1,2010-10-04T20:00:00Z,26.4345,-81.9647,2.082,31.71,1111122 
SCCF RECON,ioos:station:SCCF:16:1,2010-10-04T21:00:00Z,26.4345,-81.9647,2.06,30.55,1111122 
SCCF RECON,ioos:station:SCCF:16:1,2010-10-04T22:00:00Z,26.4345,-81.9647,2.159,28.98,1111122 
SCCF RECON,ioos:station:SCCF:16:1,2010-10-04T23:00:00Z,26.4345,-81.9647,2.374,30.39,1111122 
SCCF RECON,ioos:station:SCCF:16:1,2010-10-05T00:00:00Z,26.4345,-81.9647,2.516,31.79,1111122 
SCCF RECON,ioos:station:SCCF:16:1,2010-10-05T01:00:00Z,26.4345,-81.9647,2.617,32.11,1111122 
SCCF RECON,ioos:station:SCCF:16:1,2010-10-05T02:00:00Z,26.4345,-81.9647,2.721,32.88,1111122 
SCCF RECON,ioos:station:SCCF:16:1,2010-10-05T03:00:00Z,26.4345,-81.9647,2.792,33.39,1111122 
SCCF RECON,ioos:station:SCCF:16:1,2010-10-05T04:00:00Z,26.4345,-81.9647,2.766,33.6,1111122 
SCCF RECON,ioos:station:SCCF:16:1,2010-10-05T05:00:00Z,26.4345,-81.9647,2.664,33.75,1111122 
SCCF RECON,ioos:station:SCCF:16:1,2010-10-05T06:00:00Z,26.4345,-81.9647,2.486,33.75,1111122 
SCCF RECON,ioos:station:SCCF:16:1,2010-10-05T07:00:00Z,26.4345,-81.9647,2.317,32.78,1111122 
SCCF RECON,ioos:station:SCCF:16:1,2010-10-05T08:00:00Z,26.4345,-81.9647,2.192,31.68,1111122 
SCCF RECON,ioos:station:SCCF:16:1,2010-10-05T09:00:00Z,26.4345,-81.9647,2.117,30.65,1111122 
SCCF RECON,ioos:station:SCCF:16:1,2010-10-05T10:00:00Z,26.4345,-81.9647,2.219,30.91,1111122 
SCCF RECON,ioos:station:SCCF:16:1,2010-10-05T11:00:00Z,26.4345,-81.9647,2.412,30.83,1111122 
SCCF RECON,ioos:station:SCCF:16:1,2010-10-05T12:00:00Z,26.4345,-81.9647,2.588,31.18,1111122 
SCCF RECON,ioos:station:SCCF:16:1,2010-10-05T13:00:00Z,26.4345,-81.9647,2.744,31.65,1111122 
SCCF RECON,ioos:station:SCCF:16:1,2010-10-05T14:00:00Z,26.4345,-81.9647,2.878,32.66,1111122 
SCCF RECON,ioos:station:SCCF:16:1,2010-10-05T15:00:00Z,26.4345,-81.9647,2.91,33.1,1111122 
SCCF RECON,ioos:station:SCCF:16:1,2010-10-05T16:00:00Z,26.4345,-81.9647,2.862,32.85,1111122 
SCCF RECON,ioos:station:SCCF:16:1,2010-10-05T17:00:00Z,26.4345,-81.9647,2.735,33.07,1111122 
SCCF RECON,ioos:station:SCCF:16:1,2010-10-05T18:00:00Z,26.4345,-81.9647,2.536,32.85,1111122 
SCCF RECON,ioos:station:SCCF:16:1,2010-10-05T19:00:00Z,26.4345,-81.9647,2.377,32.6,1111122 
SCCF RECON,ioos:station:SCCF:16:1,2010-10-05T20:00:00Z,26.4345,-81.9647,2.253,31.47,1111122 
SCCF RECON,ioos:station:SCCF:16:1,2010-10-05T21:00:00Z,26.4345,-81.9647,2.155,31.18,1111122 
SCCF RECON,ioos:station:SCCF:16:1,2010-10-05T22:00:00Z,26.4345,-81.9647,2.179,30.64,1111122 
SCCF RECON,ioos:station:SCCF:16:1,2010-10-05T23:00:00Z,26.4345,-81.9647,2.324,29.92,1111122 
SCCF RECON,ioos:station:SCCF:16:1,2010-10-06T00:00:00Z,26.4345,-81.9647,2.512,30.77,1111122 
SCCF RECON,ioos:station:SCCF:16:1,2010-10-06T01:00:00Z,26.4345,-81.9647,2.682,31.34,1111122 
SCCF RECON,ioos:station:SCCF:16:1,2010-10-06T02:00:00Z,26.4345,-81.9647,2.775,31.81,1111122 
SCCF RECON,ioos:station:SCCF:16:1,2010-10-06T03:00:00Z,26.4345,-81.9647,2.815,32.32,1111122 
SCCF RECON,ioos:station:SCCF:16:1,2010-10-06T04:00:00Z,26.4345,-81.9647,2.833,32.6,1111122 
SCCF RECON,ioos:station:SCCF:16:1,2010-10-06T05:00:00Z,26.4345,-81.9647,2.712,32.24,1111122 
SCCF RECON,ioos:station:SCCF:16:1,2010-10-06T06:00:00Z,26.4345,-81.9647,2.493,32.16,1111122 
SCCF RECON,ioos:station:SCCF:16:1,2010-10-06T07:00:00Z,26.4345,-81.9647,2.26,32.12,1111122 
SCCF RECON,ioos:station:SCCF:16:1,2010-10-06T08:00:00Z,26.4345,-81.9647,2.07,31.0,1111122 
SCCF RECON,ioos:station:SCCF:16:1,2010-10-06T09:00:00Z,26.4345,-81.9647,1.937,30.94,1111122 
SCCF RECON,ioos:station:SCCF:16:1,2010-10-06T10:00:00Z,26.4345,-81.9647,1.926,29.31,1111122 
SCCF RECON,ioos:station:SCCF:16:1,2010-10-06T11:00:00Z,26.4345,-81.9647,2.049,28.03,1111122 
SCCF RECON,ioos:station:SCCF:16:1,2010-10-06T12:00:00Z,26.4345,-81.9647,2.258,28.29,1111122 
SCCF RECON,ioos:station:SCCF:16:1,2010-10-06T13:00:00Z,26.4345,-81.9647,2.467,29.07,1111122 
SCCF RECON,ioos:station:SCCF:16:1,2010-10-06T14:00:00Z,26.4345,-81.9647,2.681,30.98,1111122 
SCCF RECON,ioos:station:SCCF:16:1,2010-10-06T15:00:00Z,26.4345,-81.9647,2.782,31.08,1111122 
SCCF RECON,ioos:station:SCCF:16:1,2010-10-06T16:00:00Z,26.4345,-81.9647,2.847,32.16,1111122 
SCCF RECON,ioos:station:SCCF:16:1,2010-10-06T17:00:00Z,26.4345,-81.9647,2.81,32.41,1111122 
SCCF RECON,ioos:station:SCCF:16:1,2010-10-06T18:00:00Z,26.4345,-81.9647,2.687,32.16,1111122 
SCCF RECON,ioos:station:SCCF:16:1,2010-10-06T19:00:00Z,26.4345,-81.9647,2.514,31.74,1111122 
SCCF RECON,ioos:station:SCCF:16:1,2010-10-06T20:00:00Z,26.4345,-81.9647,2.36,31.11,1111122 
SCCF RECON,ioos:station:SCCF:16:1,2010-10-06T21:00:00Z,26.4345,-81.9647,2.256,30.85,1111122 
SCCF RECON,ioos:station:SCCF:16:1,2010-10-06T22:00:00Z,26.4345,-81.9647,2.198,30.6,1111122 
SCCF RECON,ioos:station:SCCF:16:1,2010-10-06T23:00:00Z,26.4345,-81.9647,2.282,29.94,1111122 
SCCF RECON,ioos:station:SCCF:16:1,2010-10-07T00:00:00Z,26.4345,-81.9647,2.458,30.05,1111122 
SCCF RECON,ioos:station:SCCF:16:1,2010-10-07T01:00:00Z,26.4345,-81.9647,2.663,30.37,1111122 
SCCF RECON,ioos:station:SCCF:16:1,2010-10-07T02:00:00Z,26.4345,-81.9647,2.805,31.66,1111122 
SCCF RECON,ioos:station:SCCF:16:1,2010-10-07T03:00:00Z,26.4345,-81.9647,2.884,32.15,1111122 
SCCF RECON,ioos:station:SCCF:16:1,2010-10-07T04:00:00Z,26.4345,-81.9647,2.919,31.65,1111122 
SCCF RECON,ioos:station:SCCF:16:1,2010-10-07T05:00:00Z,26.4345,-81.9647,2.866,31.62,1111122 
SCCF RECON,ioos:station:SCCF:16:1,2010-10-07T06:00:00Z,26.4345,-81.9647,2.703,31.91,1111122 
SCCF RECON,ioos:station:SCCF:16:1,2010-10-07T07:00:00Z,26.4345,-81.9647,2.482,32.53,1111122 
SCCF RECON,ioos:station:SCCF:16:1,2010-10-07T08:00:00Z,26.4345,-81.9647,2.255,31.63,1111122 
SCCF RECON,ioos:station:SCCF:16:1,2010-10-07T09:00:00Z,26.4345,-81.9647,2.063,30.77,1111122 
SCCF RECON,ioos:station:SCCF:16:1,2010-10-07T10:00:00Z,26.4345,-81.9647,1.916,30.99,1111122 
SCCF RECON,ioos:station:SCCF:16:1,2010-10-07T11:00:00Z,26.4345,-81.9647,1.931,29.01,1111122 
SCCF RECON,ioos:station:SCCF:16:1,2010-10-07T12:00:00Z,26.4345,-81.9647,2.123,28.55,1111122 
SCCF RECON,ioos:station:SCCF:16:1,2010-10-07T13:00:00Z,26.4345,-81.9647,2.41,30.22,1111122 
SCCF RECON,ioos:station:SCCF:16:1,2010-10-07T14:00:00Z,26.4345,-81.9647,2.661,30.98,1111122 
SCCF RECON,ioos:station:SCCF:16:1,2010-10-07T15:00:00Z,26.4345,-81.9647,2.823,31.81,1111122 
SCCF RECON,ioos:station:SCCF:16:1,2010-10-07T16:00:00Z,26.4345,-81.9647,2.947,32.16,1111122 
SCCF RECON,ioos:station:SCCF:16:1,2010-10-07T17:00:00Z,26.4345,-81.9647,2.997,32.52,1111122 
SCCF RECON,ioos:station:SCCF:16:1,2010-10-07T18:00:00Z,26.4345,-81.9647,2.935,32.64,1111122 
SCCF RECON,ioos:station:SCCF:16:1,2010-10-07T19:00:00Z,26.4345,-81.9647,2.786,32.61,1111122 
SCCF RECON,ioos:station:SCCF:16:1,2010-10-07T20:00:00Z,26.4345,-81.9647,2.652,32.7,1111122 
SCCF RECON,ioos:station:SCCF:16:1,2010-10-07T21:00:00Z,26.4345,-81.9647,2.525,32.69,1111122 
SCCF RECON,ioos:station:SCCF:16:1,2010-10-07T22:00:00Z,26.4345,-81.9647,2.448,31.89,1111122 
SCCF RECON,ioos:station:SCCF:16:1,2010-10-07T23:00:00Z,26.4345,-81.9647,2.415,31.93,1111122 
SCCF RECON,ioos:station:SCCF:16:1,2010-10-08T00:00:00Z,26.4345,-81.9647,2.515,31.66,1111122 
SCCF RECON,ioos:station:SCCF:16:1,2010-10-08T01:00:00Z,26.4345,-81.9647,2.719,31.84,1111122 
SCCF RECON,ioos:station:SCCF:16:1,2010-10-08T02:00:00Z,26.4345,-81.9647,2.917,31.28,1111122 
SCCF RECON,ioos:station:SCCF:16:1,2010-10-08T03:00:00Z,26.4345,-81.9647,3.054,31.55,1111122 
SCCF RECON,ioos:station:SCCF:16:1,2010-10-08T04:00:00Z,26.4345,-81.9647,3.122,32.8,1111122 
SCCF RECON,ioos:station:SCCF:16:1,2010-10-08T05:00:00Z,26.4345,-81.9647,3.134,33.21,1111122 
SCCF RECON,ioos:station:SCCF:16:1,2010-10-08T06:00:00Z,26.4345,-81.9647,3.027,33.15,1111122 
SCCF RECON,ioos:station:SCCF:16:1,2010-10-08T07:00:00Z,26.4345,-81.9647,2.792,33.09,1111122 
SCCF RECON,ioos:station:SCCF:16:1,2010-10-08T08:00:00Z,26.4345,-81.9647,2.568,32.58,1111122 
SCCF RECON,ioos:station:SCCF:16:1,2010-10-08T09:00:00Z,26.4345,-81.9647,2.352,32.0,1111122 
SCCF RECON,ioos:station:SCCF:16:1,2010-10-08T10:00:00Z,26.4345,-81.9647,2.153,31.72,1111122 
SCCF RECON,ioos:station:SCCF:16:1,2010-10-08T11:00:00Z,26.4345,-81.9647,2.033,31.5,1111122 
SCCF RECON,ioos:station:SCCF:16:1,2010-10-08T12:00:00Z,26.4345,-81.9647,2.079,30.51,1111122 
SCCF RECON,ioos:station:SCCF:16:1,2010-10-08T13:00:00Z,26.4345,-81.9647,2.31,30.95,1111122 
SCCF RECON,ioos:station:SCCF:16:1,2010-10-08T14:00:00Z,26.4345,-81.9647,2.614,31.9,1111122 
SCCF RECON,ioos:station:SCCF:16:1,2010-10-08T15:00:00Z,26.4345,-81.9647,2.829,32.57,1111122 
SCCF RECON,ioos:station:SCCF:16:1,2010-10-08T16:00:00Z,26.4345,-81.9647,2.93,32.84,1111122 
SCCF RECON,ioos:station:SCCF:16:1,2010-10-08T17:00:00Z,26.4345,-81.9647,3.038,33.07,1111122 
SCCF RECON,ioos:station:SCCF:16:1,2010-10-08T18:00:00Z,26.4345,-81.9647,3.056,33.25,1111122 
SCCF RECON,ioos:station:SCCF:16:1,2010-10-08T19:00:00Z,26.4345,-81.9647,2.974,33.32,1111122 
SCCF RECON,ioos:station:SCCF:16:1,2010-10-08T20:00:00Z,26.4345,-81.9647,2.818,33.29,1111122 
SCCF RECON,ioos:station:SCCF:16:1,2010-10-08T21:00:00Z,26.4345,-81.9647,2.708,33.21,1111122 
SCCF RECON,ioos:station:SCCF:16:1,2010-10-08T22:00:00Z,26.4345,-81.9647,2.635,32.69,1111122 
SCCF RECON,ioos:station:SCCF:16:1,2010-10-08T23:00:00Z,26.4345,-81.9647,2.554,32.09,1111122 
SCCF RECON,ioos:station:SCCF:16:1,2010-10-09T00:00:00Z,26.4345,-81.9647,2.535,32.57,1111122 
SCCF RECON,ioos:station:SCCF:16:1,2010-10-09T01:00:00Z,26.4345,-81.9647,2.658,32.38,1111122 
SCCF RECON,ioos:station:SCCF:16:1,2010-10-09T02:00:00Z,26.4345,-81.9647,2.864,32.58,1111122 
SCCF RECON,ioos:station:SCCF:16:1,2010-10-09T03:00:00Z,26.4345,-81.9647,3.069,33.45,1111122 
SCCF RECON,ioos:station:SCCF:16:1,2010-10-09T04:00:00Z,26.4345,-81.9647,3.153,33.41,1111122 
SCCF RECON,ioos:station:SCCF:16:1,2010-10-09T05:00:00Z,26.4345,-81.9647,3.178,33.25,1111122 
SCCF RECON,ioos:station:SCCF:16:1,2010-10-09T06:00:00Z,26.4345,-81.9647,3.16,33.36,1111122 
SCCF RECON,ioos:station:SCCF:16:1,2010-10-09T07:00:00Z,26.4345,-81.9647,3.009,33.31,1111122 
SCCF RECON,ioos:station:SCCF:16:1,2010-10-09T08:00:00Z,26.4345,-81.9647,2.771,33.35,1111122 
SCCF RECON,ioos:station:SCCF:16:1,2010-10-09T09:00:00Z,26.4345,-81.9647,2.545,33.11,1111122 
SCCF RECON,ioos:station:SCCF:16:1,2010-10-09T10:00:00Z,26.4345,-81.9647,2.349,32.68,1111122 
SCCF RECON,ioos:station:SCCF:16:1,2010-10-09T11:00:00Z,26.4345,-81.9647,2.152,32.33,1111122 
SCCF RECON,ioos:station:SCCF:16:1,2010-10-09T12:00:00Z,26.4345,-81.9647,2.061,31.74,1111122 
SCCF RECON,ioos:station:SCCF:16:1,2010-10-09T13:00:00Z,26.4345,-81.9647,2.159,30.99,1111122 
SCCF RECON,ioos:station:SCCF:16:1,2010-10-09T14:00:00Z,26.4345,-81.9647,2.423,31.75,1111122 
SCCF RECON,ioos:station:SCCF:16:1,2010-10-09T15:00:00Z,26.4345,-81.9647,2.703,32.7,1111122 
SCCF RECON,ioos:station:SCCF:16:1,2010-10-09T16:00:00Z,26.4345,-81.9647,2.861,33.04,1111122 
SCCF RECON,ioos:station:SCCF:16:1,2010-10-09T17:00:00Z,26.4345,-81.9647,2.948,33.06,1111122 
SCCF RECON,ioos:station:SCCF:16:1,2010-10-09T18:00:00Z,26.4345,-81.9647,3.042,33.17,1111122 
SCCF RECON,ioos:station:SCCF:16:1,2010-10-09T19:00:00Z,26.4345,-81.9647,3.054,33.23,1111122 
SCCF RECON,ioos:station:SCCF:16:1,2010-10-09T20:00:00Z,26.4345,-81.9647,2.967,33.2,1111122 
SCCF RECON,ioos:station:SCCF:16:1,2010-10-09T21:00:00Z,26.4345,-81.9647,2.849,33.19,1111122 
SCCF RECON,ioos:station:SCCF:16:1,2010-10-09T22:00:00Z,26.4345,-81.9647,2.754,33.22,1111122 
SCCF RECON,ioos:station:SCCF:16:1,2010-10-09T23:00:00Z,26.4345,-81.9647,2.7,33.3,1111122 
SCCF RECON,ioos:station:SCCF:16:1,2010-10-10T00:00:00Z,26.4345,-81.9647,2.642,32.86,1111122 
SCCF RECON,ioos:station:SCCF:16:1,2010-10-10T01:00:00Z,26.4345,-81.9647,2.688,33.03,1111122 
SCCF RECON,ioos:station:SCCF:16:1,2010-10-10T02:00:00Z,26.4345,-81.9647,2.843,32.86,1111122 
SCCF RECON,ioos:station:SCCF:16:1,2010-10-10T03:00:00Z,26.4345,-81.9647,3.05,33.35,1111122 
SCCF RECON,ioos:station:SCCF:16:1,2010-10-10T04:00:00Z,26.4345,-81.9647,3.187,33.38,1111122 
SCCF RECON,ioos:station:SCCF:16:1,2010-10-10T05:00:00Z,26.4345,-81.9647,3.212,33.41,1111122 
SCCF RECON,ioos:station:SCCF:16:1,2010-10-10T06:00:00Z,26.4345,-81.9647,3.234,33.46,1111122 
SCCF RECON,ioos:station:SCCF:16:1,2010-10-10T07:00:00Z,26.4345,-81.9647,3.167,33.49,1111122 
SCCF RECON,ioos:station:SCCF:16:1,2010-10-10T08:00:00Z,26.4345,-81.9647,2.984,33.49,1111122 
SCCF RECON,ioos:station:SCCF:16:1,2010-10-10T09:00:00Z,26.4345,-81.9647,2.756,33.42,1111122 
SCCF RECON,ioos:station:SCCF:16:1,2010-10-10T10:00:00Z,26.4345,-81.9647,2.548,32.96,1111122 
SCCF RECON,ioos:station:SCCF:16:1,2010-10-10T11:00:00Z,26.4345,-81.9647,2.33,32.84,1111122 
SCCF RECON,ioos:station:SCCF:16:1,2010-10-10T12:00:00Z,26.4345,-81.9647,2.129,32.54,1111122 
SCCF RECON,ioos:station:SCCF:16:1,2010-10-10T13:00:00Z,26.4345,-81.9647,2.048,31.45,1111122 
SCCF RECON,ioos:station:SCCF:16:1,2010-10-10T14:00:00Z,26.4345,-81.9647,2.179,31.4,1111122 
SCCF RECON,ioos:station:SCCF:16:1,2010-10-10T15:00:00Z,26.4345,-81.9647,2.429,31.98,1111122 
SCCF RECON,ioos:station:SCCF:16:1,2010-10-10T16:00:00Z,26.4345,-81.9647,2.644,32.54,1111122 
SCCF RECON,ioos:station:SCCF:16:1,2010-10-10T17:00:00Z,26.4345,-81.9647,2.764,33.02,1111122 
SCCF RECON,ioos:station:SCCF:16:1,2010-10-10T18:00:00Z,26.4345,-81.9647,2.835,33.14,1111122 
SCCF RECON,ioos:station:SCCF:16:1,2010-10-10T19:00:00Z,26.4345,-81.9647,2.871,33.2,1111122 
SCCF RECON,ioos:station:SCCF:16:1,2010-10-10T20:00:00Z,26.4345,-81.9647,2.87,33.24,1111122 
SCCF RECON,ioos:station:SCCF:16:1,2010-10-10T21:00:00Z,26.4345,-81.9647,2.793,33.35,1111122 
SCCF RECON,ioos:station:SCCF:16:1,2010-10-10T22:00:00Z,26.4345,-81.9647,2.696,33.31,1111122 
SCCF RECON,ioos:station:SCCF:16:1,2010-10-10T23:00:00Z,26.4345,-81.9647,2.659,33.23,1111122 
SCCF RECON,ioos:station:SCCF:16:1,2010-10-11T00:00:00Z,26.4345,-81.9647,2.625,33.24,1111122 
SCCF RECON,ioos:station:SCCF:16:1,2010-10-11T01:00:00Z,26.4345,-81.9647,2.602,33.33,1111122 
SCCF RECON,ioos:station:SCCF:16:1,2010-10-11T02:00:00Z,26.4345,-81.9647,2.664,33.45,1111122 
SCCF RECON,ioos:station:SCCF:16:1,2010-10-11T03:00:00Z,26.4345,-81.9647,2.813,33.55,1111122 
SCCF RECON,ioos:station:SCCF:16:1,2010-10-11T04:00:00Z,26.4345,-81.9647,2.97,33.6,1111122 
SCCF RECON,ioos:station:SCCF:16:1,2010-10-11T05:00:00Z,26.4345,-81.9647,3.058,33.7,1111122 
SCCF RECON,ioos:station:SCCF:16:1,2010-10-11T06:00:00Z,26.4345,-81.9647,3.091,33.74,1111122 
SCCF RECON,ioos:station:SCCF:16:1,2010-10-11T07:00:00Z,26.4345,-81.9647,3.107,33.62,1111122 
SCCF RECON,ioos:station:SCCF:16:1,2010-10-11T08:00:00Z,26.4345,-81.9647,3.022,33.56,1111122 
SCCF RECON,ioos:station:SCCF:16:1,2010-10-11T09:00:00Z,26.4345,-81.9647,2.865,33.64,1111122 
SCCF RECON,ioos:station:SCCF:16:1,2010-10-11T10:00:00Z,26.4345,-81.9647,2.659,33.58,1111122 
SCCF RECON,ioos:station:SCCF:16:1,2010-10-11T11:00:00Z,26.4345,-81.9647,2.461,33.35,1111122 
SCCF RECON,ioos:station:SCCF:16:1,2010-10-11T12:00:00Z,26.4345,-81.9647,2.295,32.94,1111122 
SCCF RECON,ioos:station:SCCF:16:1,2010-10-11T13:00:00Z,26.4345,-81.9647,2.135,32.54,1111122 
SCCF RECON,ioos:station:SCCF:16:1,2010-10-11T14:00:00Z,26.4345,-81.9647,2.113,31.3,1111122 
SCCF RECON,ioos:station:SCCF:16:1,2010-10-11T15:00:00Z,26.4345,-81.9647,2.262,30.79,1111122 
SCCF RECON,ioos:station:SCCF:16:1,2010-10-11T16:00:00Z,26.4345,-81.9647,2.493,31.7,1111122 